カタログに戻る

CZ-6A DEB

運用中PO
NORAD 54894·DEBRIS·🇨🇳 China

打ち上げ Nov 11, 2022 から Taiyuan Satellite Launch Center

Loading…

次のパス (今後24時間)

TLE

最新Source: Space-Track

元期: Sep 14, 2026, 05:29 UTC

1 54894U 22151QF  26257.22895739  .00019183  00000-0  16787-2 0  9991
2 54894  98.6147 348.1444 0045826 289.6518  69.9758 14.95961011201249

AllMySatでCZ-6A DEBをリアルタイム追跡

Download on the App Store